Location: Sobotiste
(48.7170°N, 17.4000°E)
Time: 08:00:43
(UTC+02:00)

YUBILEINY - Pass Details

Date: 12 March 2026
Orbit: 1477 x 1509 km, 82.5° (Epoch: 13 April)

Event Time Altitude Azimuth Distance (km) Brightness Sun altitude
Rises 02:29:57 0° 351° (N) 4,628 ? -34.6°
Reaches altitude 10° 02:33:03 10° 357° (N) 3,640 ? -34.2°
Maximum altitude 02:41:25 47° 70° (ENE) 1,882 ? -33.1°
Drops below altitude 10° 02:49:42 10° 143° (SE) 3,608 ? -32.1°
Sets 02:52:43 0° 149° (SSE) 4,584 ? -31.7°
